Location: Gunnison Valley Observatory
(38.5087°N, 106.9386°W)
Time: 05:45:27
(UTC-06:00)

Amateur Radio Satellites - All Passes

Search period start: 25 March 2017 05:15
Search period end: 26 March 2017 05:15
Location: Gunnison Valley Observatory, 38.5087°N, 106.9386°W

Satellite Date Start Highest point End Downlink Frequencies (MHz)
Time Altitude Azimuth
STARS 25 Mar 05:25:50 05:30:15 88° 76° (ENE) 05:34:43 437.465
AO-85 25 Mar 05:30:38 05:32:32 13° 45° (NE) 05:34:28 145.980
CUBESAT XI-V 25 Mar 05:39:08 05:43:28 41° 262° (W) 05:47:49 437.345
CUTE-I 25 Mar 06:16:32 06:19:36 15° 91° (E) 06:22:38 437.470
ITAMSAT 1 25 Mar 06:20:18 06:21:10 10° 301° (WNW) 06:22:02 435.822/435.867
M-CUBED/EXP-1 PRIME 25 Mar 06:20:34 06:24:09 73° 70° (ENE) 06:28:03 437.505
DOVE 4 25 Mar 06:25:38 06:30:18 31° 95° (E) 06:34:53 437.250
LilacSat-2 25 Mar 06:30:31 06:33:18 19° 95° (E) 06:36:03 437.200
XW-2F 25 Mar 06:32:12 06:34:52 18° 94° (E) 06:37:31 145.980 - 146.000
AO-7 25 Mar 06:50:47 06:56:42 22° 306° (NW) 07:02:37 .
XW-2D 25 Mar 06:56:23 06:59:56 40° 99° (E) 07:03:28 145.860 - 145.880
NUDT-PHONESAT 25 Mar 07:01:51 07:05:16 36° 98° (E) 07:08:40 437.300
XW-2B 25 Mar 07:02:13 07:05:51 47° 99° (E) 07:09:27 145.730 - 145.750
KAITUO 1B 25 Mar 07:06:58 07:10:31 42° 99° (E) 07:14:01 145.475/437.950
AO-85 25 Mar 07:09:23 07:13:16 60° 242° (WSW) 07:17:17 145.980
XW-2C 25 Mar 07:12:15 07:15:58 66° 100° (E) 07:19:41 145.795 - 145.815
BEESAT 3 25 Mar 07:12:53 07:15:22 16° 46° (NE) 07:17:50 437.485
STRAND 1 25 Mar 07:28:39 07:33:44 63° 73° (ENE) 07:38:50 437.568
XW-2A 25 Mar 07:39:50 07:41:54 15° 94° (E) 07:43:57 145.665 - 145.685
CUTE-I 25 Mar 07:54:45 08:00:02 62° 287° (WNW) 08:05:17 437.470
YUBILEINY 25 Mar 07:57:54 08:06:18 54° 90° (E) 08:14:41 435.215
CUBEBUG 2 25 Mar 07:59:34 08:00:33 11° 89° (E) 08:01:32 437.445
NO-84 25 Mar 08:00:45 08:03:33 57° 317° (NW) 08:06:22 435.350 FM
DOVE 4 25 Mar 08:03:13 08:07:52 32° 291° (WNW) 08:12:28 437.250
LilacSat-2 25 Mar 08:04:26 08:07:31 24° 289° (WNW) 08:10:36 437.200
XW-2F 25 Mar 08:05:53 08:08:59 25° 289° (WNW) 08:12:03 145.980 - 146.000
AAUSAT CUBESAT 2 25 Mar 08:17:48 08:19:24 12° 91° (E) 08:21:00 437.432
SEEDS 25 Mar 08:26:51 08:30:40 33° 97° (E) 08:34:28 437.485
CUTE 1.7 + AOD 2 25 Mar 08:30:30 08:34:41 59° 101° (E) 08:38:50 437.475
XW-2D 25 Mar 08:32:09 08:33:44 12° 294° (WNW) 08:35:19 145.860 - 145.880
HO-68 25 Mar 08:34:30 08:41:36 62° 103° (ESE) 08:48:40 435.675
NUDT-PHONESAT 25 Mar 08:37:04 08:38:51 13° 293° (WNW) 08:40:38 437.300
XW-2B 25 Mar 08:38:35 08:39:36 11° 294° (WNW) 08:40:35 145.730 - 145.750
KAITUO 1B 25 Mar 08:42:51 08:44:07 11° 294° (WNW) 08:45:22 145.475/437.950
FO-29 25 Mar 08:46:43 08:48:24 11° 54° (NE) 08:50:02 435.910
BEESAT 3 25 Mar 08:49:21 08:53:15 51° 244° (WSW) 08:57:07 437.485
BEESAT 2 25 Mar 09:01:22 09:05:27 80° 59° (ENE) 09:09:28 435.950
UWE-3 25 Mar 09:02:57 09:06:55 35° 97° (E) 09:10:46 435.000/436.395/437.385
PCSat 25 Mar 09:07:21 09:10:09 14° 103° (ESE) 09:12:57 145.827
STRAND 1 25 Mar 09:10:36 09:13:18 14° 269° (W) 09:15:59 437.568
XW-2A 25 Mar 09:11:53 09:14:39 24° 289° (WNW) 09:17:25 145.665 - 145.685
CUBEBUG 2 25 Mar 09:33:14 09:37:36 59° 285° (WNW) 09:41:48 437.445
JUGNU 25 Mar 09:35:57 09:37:24 11° 174° (S) 09:38:52 437.505
Oscar 11 25 Mar 09:42:17 09:46:24 43° 99° (E) 09:50:30 .
ZACube-1 25 Mar 09:46:57 09:51:10 66° 101° (E) 09:55:17 437.345
DELFI C3 25 Mar 09:50:00 09:52:13 14° 93° (E) 09:54:27 145.870
AAUSAT CUBESAT 2 25 Mar 09:51:07 09:55:07 49° 286° (WNW) 09:59:07 437.432
YUBILEINY 25 Mar 09:55:52 10:03:24 32° 289° (WNW) 10:10:57 435.215
SEEDS 25 Mar 10:03:12 10:06:06 19° 292° (WNW) 10:09:00 437.485
PRISM 25 Mar 10:08:04 10:12:05 69° 257° (WSW) 10:16:10 437.425
CUTE 1.7 + AOD 2 25 Mar 10:08:40 10:09:59 11° 296° (WNW) 10:11:18 437.475
AO-73 25 Mar 10:16:18 10:20:29 61° 284° (WNW) 10:24:33 145.935
TIGRISAT 25 Mar 10:19:45 10:24:24 67° 75° (ENE) 10:29:04 435.000
HO-68 25 Mar 10:23:13 10:28:45 25° 300° (WNW) 10:34:18 435.675
FO-29 25 Mar 10:24:23 10:32:01 58° 71° (ENE) 10:39:17 435.910
UNISAT 6 25 Mar 10:29:26 10:34:08 88° 253° (WSW) 10:38:50 437.425
UWE-3 25 Mar 10:40:07 10:43:05 18° 293° (WNW) 10:45:59 435.000/436.395/437.385
PCSat 25 Mar 10:47:29 10:52:52 70° 299° (WNW) 10:58:18 145.827
NANOSAT C BR1 25 Mar 11:14:46 11:17:52 20° 68° (ENE) 11:20:59 145.865
RS-15 25 Mar 11:17:02 11:23:03 15° 95° (E) 11:29:09 29.354- 29.394
EO-79 25 Mar 11:18:05 11:21:30 24° 69° (ENE) 11:24:55 145.935-145.965
Oscar 11 25 Mar 11:19:37 11:22:08 15° 294° (WNW) 11:24:40 .
DELFI C3 25 Mar 11:23:27 11:27:08 37° 287° (WNW) 11:30:50 145.870
JUGNU 25 Mar 11:23:37 11:25:30 11° 184° (S) 11:27:24 437.505
ZACube-1 25 Mar 11:26:22 11:26:50 10° 297° (WNW) 11:27:19 437.345
AIST 2D 25 Mar 11:41:46 11:45:19 79° 77° (ENE) 11:48:52 435.315
POLYITAN 1 25 Mar 11:44:57 11:49:04 47° 73° (ENE) 11:53:12 437.675
ESTCUBE 1 25 Mar 11:48:33 11:52:05 22° 95° (E) 11:55:36 437.505/2401.250
LO-87 25 Mar 11:48:57 11:52:27 42° 99° (E) 11:55:55 145.935 - 145.965
QB50P2 25 Mar 11:49:25 11:53:36 58° 75° (ENE) 11:57:50 145.880/145.840
TIGRISAT 25 Mar 12:00:05 12:01:28 11° 270° (W) 12:02:52 435.000
DUCHIFAT 1 25 Mar 12:03:41 12:07:54 65° 75° (ENE) 12:12:08 145.980
FO-29 25 Mar 12:10:38 12:17:11 29° 266° (W) 12:23:34 435.910
BUGSAT 1 25 Mar 12:25:36 12:29:29 36° 71° (ENE) 12:33:23 437.445
SPROUT 25 Mar 12:26:15 12:28:31 14° 92° (E) 12:30:46 437.525
Oscar 19 25 Mar 12:32:50 12:35:57 16° 63° (ENE) 12:39:04 437.125/150
PCSat 25 Mar 12:35:20 12:37:16 12° 319° (NW) 12:39:13 145.827
Gurwin Techsat 1B 25 Mar 12:38:51 12:39:55 11° 59° (ENE) 12:40:59 435.225
NANOSAT C BR1 25 Mar 12:49:31 12:53:21 32° 263° (W) 12:57:12 145.865
DX 1 25 Mar 12:50:06 12:51:37 12° 91° (E) 12:53:08 434.975-435.025
50 SAT 25 Mar 12:52:48 12:55:13 17° 95° (E) 12:57:37 437.505
EO-79 25 Mar 12:53:28 12:57:07 27° 264° (W) 13:00:47 145.935-145.965
VELOX 1 25 Mar 13:06:20 13:10:39 47° 100° (E) 13:14:57 145.980
RS-15 25 Mar 13:21:22 13:33:12 74° 115° (ESE) 13:45:30 29.354- 29.394
POLYITAN 1 25 Mar 13:22:58 13:25:06 13° 268° (W) 13:27:13 437.675
SRMSAT 25 Mar 13:23:44 13:25:59 12° 181° (S) 13:28:15 437.500
LO-87 25 Mar 13:24:18 13:25:29 11° 294° (WNW) 13:26:40 145.935 - 145.965
ESTCUBE 1 25 Mar 13:24:54 13:28:53 31° 290° (WNW) 13:32:51 437.505/2401.250
QB50P2 25 Mar 13:28:41 13:29:44 11° 269° (W) 13:30:47 145.880/145.840
UKube-1 25 Mar 13:31:07 13:34:39 24° 96° (E) 13:38:09 .
SPROUT 25 Mar 14:00:33 14:04:39 45° 287° (WNW) 14:08:42 437.525
BUGSAT 1 25 Mar 14:02:09 14:04:56 17° 267° (W) 14:07:44 437.445
AO-7 25 Mar 14:04:17 14:10:08 22° 54° (NE) 14:15:57 .
Oscar 19 25 Mar 14:09:44 14:14:45 58° 259° (W) 14:19:49 437.125/150
Gurwin Techsat 1B 25 Mar 14:13:40 14:19:00 85° 73° (ENE) 14:24:20 435.225
ITAMSAT 1 25 Mar 14:17:06 14:20:05 16° 62° (ENE) 14:23:06 435.822/435.867
DX 1 25 Mar 14:23:48 14:28:08 57° 286° (WNW) 14:32:25 434.975-435.025
50 SAT 25 Mar 14:25:22 14:28:13 23° 289° (WNW) 14:31:03 437.505
NO-84 25 Mar 14:35:09 14:38:11 37° 40° (NE) 14:41:29 435.350 FM
VELOX 1 25 Mar 14:44:02 14:46:41 16° 295° (WNW) 14:49:20 145.980
BEESAT 25 Mar 14:45:33 14:46:49 11° 90° (E) 14:48:05 436.000
ITUPSAT 1 25 Mar 14:59:28 15:02:23 16° 93° (E) 15:05:16 437.325
UKube-1 25 Mar 15:06:56 15:10:36 27° 291° (WNW) 15:14:16 .
RS-15 25 Mar 15:35:50 15:46:49 38° 320° (NW) 15:58:07 29.354- 29.394
SO-50 25 Mar 15:40:13 15:44:53 85° 303° (WNW) 15:49:31 436.795
AO-7 25 Mar 15:53:33 16:01:54 85° 251° (WSW) 16:10:16 .
ITAMSAT 1 25 Mar 15:53:48 15:58:59 65° 258° (WSW) 16:04:11 435.822/435.867
Gurwin Techsat 1B 25 Mar 15:58:42 15:59:32 10° 271° (W) 16:00:23 435.225
NO-84 25 Mar 16:13:09 16:15:36 18° 233° (SW) 16:18:12 435.350 FM
BEESAT 25 Mar 16:20:18 16:25:03 69° 285° (WNW) 16:29:44 436.000
ITUPSAT 1 25 Mar 16:35:52 16:40:27 48° 288° (WNW) 16:45:00 437.325
KKS-1 25 Mar 16:38:36 16:41:12 15° 93° (E) 16:43:48 437.445
O/OREOS (USA 219) 25 Mar 16:44:06 16:47:28 21° 101° (E) 16:50:52 437.305
MOZHAYETS 4 25 Mar 16:47:30 16:52:04 83° 286° (WNW) 16:56:37
STARS 25 Mar 17:17:40 17:20:37 17° 94° (E) 17:23:34 437.465
SO-50 25 Mar 17:24:06 17:26:01 12° 319° (NW) 17:27:55 436.795
DOVE 4 25 Mar 17:29:53 17:33:35 24° 67° (ENE) 17:37:29 437.250
CUTE-I 25 Mar 17:36:32 17:40:41 23° 65° (ENE) 17:44:51 437.470
CUBESAT XI-V 25 Mar 17:36:36 17:41:08 52° 100° (E) 17:45:41 437.345
XW-2D 25 Mar 17:37:04 17:39:35 17° 68° (ENE) 17:42:06 145.860 - 145.880
NUDT-PHONESAT 25 Mar 17:41:01 17:43:07 15° 68° (ENE) 17:45:13 437.300
XW-2B 25 Mar 17:42:42 17:45:27 19° 69° (ENE) 17:48:12 145.730 - 145.750
KAITUO 1B 25 Mar 17:46:29 17:48:58 17° 69° (ENE) 17:51:27 145.475/437.950
AO-7 25 Mar 17:51:16 17:55:40 15° 269° (W) 18:00:06 .
XW-2C 25 Mar 17:52:21 17:55:31 25° 71° (ENE) 17:58:41 145.795 - 145.815
PCSat 25 Mar 17:55:56 17:57:45 12° 41° (NE) 17:59:35 145.827
RS-15 25 Mar 17:56:26 18:04:31 19° 353° (N) 18:12:36 29.354- 29.394
YUBILEINY 25 Mar 18:10:30 18:17:14 24° 68° (ENE) 18:23:54 435.215
KKS-1 25 Mar 18:13:41 18:17:59 46° 288° (WNW) 18:22:14 437.445
O/OREOS (USA 219) 25 Mar 18:22:31 18:26:37 34° 297° (WNW) 18:30:47 437.305
LilacSat-2 25 Mar 18:43:50 18:47:39 64° 259° (W) 18:51:27 437.200
XW-2F 25 Mar 18:44:23 18:48:09 69° 258° (WSW) 18:51:57 145.980 - 146.000
STARS 25 Mar 18:52:59 18:57:06 38° 289° (WNW) 19:01:11 437.465
HO-68 25 Mar 19:01:37 19:08:08 40° 65° (ENE) 19:14:40 435.675
DOVE 4 25 Mar 19:06:55 19:11:03 33° 264° (W) 19:15:28 437.250
XW-2D 25 Mar 19:10:11 19:13:32 29° 263° (W) 19:16:54 145.860 - 145.880
NUDT-PHONESAT 25 Mar 19:13:18 19:16:44 34° 262° (W) 19:20:10 437.300
CUTE-I 25 Mar 19:15:20 19:20:25 43° 261° (W) 19:25:33 437.470
CUBESAT XI-V 25 Mar 19:15:23 19:18:04 15° 295° (WNW) 19:20:45 437.345
XW-2B 25 Mar 19:16:15 19:19:28 26° 264° (W) 19:22:42 145.730 - 145.750
SEEDS 25 Mar 19:17:39 19:20:41 20° 68° (ENE) 19:23:42 437.485
KAITUO 1B 25 Mar 19:19:29 19:22:46 28° 263° (W) 19:26:03 145.475/437.950
CUTE 1.7 + AOD 2 25 Mar 19:21:41 19:25:28 34° 72° (ENE) 19:29:17 437.475
XW-2C 25 Mar 19:26:52 19:29:41 19° 266° (W) 19:32:29 145.795 - 145.815
M-CUBED/EXP-1 PRIME 25 Mar 19:33:58 19:38:37 73° 106° (ESE) 19:43:17 437.505
PCSat 25 Mar 19:36:45 19:42:11 68° 61° (ENE) 19:47:34 145.827
XW-2A 25 Mar 19:40:51 19:44:17 79° 77° (ENE) 19:47:45 145.665 - 145.685
STRAND 1 25 Mar 19:41:18 19:45:22 23° 95° (E) 19:49:23 437.568
UWE-3 25 Mar 19:58:10 20:02:03 27° 69° (ENE) 20:05:54 435.000/436.395/437.385
YUBILEINY 25 Mar 20:06:08 20:14:45 70° 268° (W) 20:23:22 435.215
Tancredo 1 25 Mar 20:10:51 20:12:09 12° 128° (SE) 20:13:27 437.200
RS-15 25 Mar 20:13:07 20:23:12 28° 30° (NNE) 20:32:59 29.354- 29.394
CUBEBUG 2 25 Mar 20:28:43 20:33:29 89° 262° (W) 20:38:15 437.445
Oscar 11 25 Mar 20:35:43 20:39:24 28° 70° (ENE) 20:43:06 .
AAUSAT CUBESAT 2 25 Mar 20:39:11 20:43:17 85° 77° (ENE) 20:47:24 437.432
ZACube-1 25 Mar 20:40:40 20:44:59 43° 73° (ENE) 20:49:15 437.345
HO-68 25 Mar 20:49:18 20:55:48 37° 262° (W) 21:02:21 435.675
SEEDS 25 Mar 20:52:28 20:56:09 30° 264° (W) 20:59:51 437.485
CUTE 1.7 + AOD 2 25 Mar 20:58:30 21:01:22 18° 267° (W) 21:04:16 437.475
AO-73 25 Mar 21:09:23 21:13:56 83° 76° (ENE) 21:18:26 145.935
M-CUBED/EXP-1 PRIME 25 Mar 21:10:20 21:12:28 13° 302° (WNW) 21:14:36 437.505
STRAND 1 25 Mar 21:19:55 21:24:36 38° 290° (WNW) 21:29:16 437.568
AO-85 25 Mar 21:21:57 21:26:22 60° 118° (ESE) 21:30:31 145.980
PCSat 25 Mar 21:22:00 21:24:56 15° 256° (WSW) 21:27:51 145.827
UWE-3 25 Mar 21:34:20 21:38:22 29° 264° (W) 21:42:23 435.000/436.395/437.385
ISS 25 Mar 21:40:10 21:43:25 77° 323° (NW) 21:46:41 437.550
Tancredo 1 25 Mar 21:44:48 21:47:55 58° 323° (NW) 21:51:04 437.200
PRISM 25 Mar 21:51:39 21:54:28 17° 94° (E) 21:57:16 437.425
DELFI C3 25 Mar 22:06:49 22:10:43 86° 258° (WSW) 22:14:40 145.870
YUBILEINY 25 Mar 22:08:10 22:09:48 11° 286° (WNW) 22:11:26 435.215
Oscar 11 25 Mar 22:12:05 22:15:30 23° 265° (W) 22:18:56 .
TIGRISAT 25 Mar 22:14:24 22:16:53 15° 92° (E) 22:19:19 435.000
ZACube-1 25 Mar 22:18:30 22:21:24 17° 267° (W) 22:24:18 437.345
UNISAT 6 25 Mar 22:23:37 22:26:56 21° 94° (E) 22:30:10 437.425
LO-87 25 Mar 22:24:56 22:26:58 15° 67° (ENE) 22:29:01 145.935 - 145.965
RS-15 25 Mar 22:25:49 22:38:11 77° 57° (ENE) 22:49:54 29.354- 29.394
BEESAT 3 25 Mar 22:37:45 22:41:17 34° 114° (ESE) 22:44:54 437.485
ESTCUBE 1 25 Mar 22:47:14 22:50:14 18° 66° (ENE) 22:53:14 437.505/2401.250
BEESAT 2 25 Mar 22:52:19 22:55:06 19° 111° (ESE) 22:57:56 435.950
AO-85 25 Mar 23:04:34 23:07:04 15° 314° (NW) 23:09:30 145.980
ISS 25 Mar 23:18:24 23:20:21 15° 340° (NNW) 23:22:18 437.550
FO-29 25 Mar 23:21:57 23:27:45 49° 98° (E) 23:32:57 435.910
Tancredo 1 25 Mar 23:23:06 23:24:37 13° 342° (NNW) 23:26:07 437.200
PRISM 25 Mar 23:26:03 23:29:49 34° 289° (WNW) 23:33:35 437.425
QB50P2 25 Mar 23:38:43 23:39:18 10° 90° (E) 23:39:54 145.880/145.840
TIGRISAT 25 Mar 23:49:36 23:53:47 44° 288° (WNW) 23:57:53 435.000
DUCHIFAT 1 25 Mar 23:51:34 23:52:46 11° 91° (E) 23:53:58 145.980
LO-87 25 Mar 23:56:55 00:00:08 31° 263° (W) 00:03:23 145.935 - 145.965
UNISAT 6 25 Mar 23:59:45 00:03:40 31° 290° (WNW) 00:07:30 437.425
VELOX 1 26 Mar 00:02:07 00:06:06 34° 70° (ENE) 00:10:06 145.980
SO-50 26 Mar 00:12:56 00:17:22 55° 56° (NE) 00:21:46 436.795
BEESAT 3 26 Mar 00:16:00 00:18:58 20° 311° (NW) 00:21:58 437.485
ESTCUBE 1 26 Mar 00:22:30 00:26:42 40° 262° (W) 00:30:56 437.505/2401.250
UKube-1 26 Mar 00:24:45 00:27:38 18° 66° (ENE) 00:30:32 .
BEESAT 2 26 Mar 00:29:00 00:32:37 34° 307° (NW) 00:36:18 435.950
NANOSAT C BR1 26 Mar 00:34:48 00:38:49 41° 99° (E) 00:42:46 145.865
EO-79 26 Mar 00:38:47 00:42:56 51° 100° (E) 00:47:01 145.935-145.965
RS-15 26 Mar 00:39:48 00:49:21 29° 258° (WSW) 00:58:37 29.354- 29.394
AIST 2D 26 Mar 00:41:28 00:44:55 65° 284° (WNW) 00:48:21 435.315
SPROUT 26 Mar 00:51:47 00:56:03 75° 258° (WSW) 01:00:22 437.525
50 SAT 26 Mar 00:56:34 01:00:00 83° 257° (WSW) 01:03:28 437.505
POLYITAN 1 26 Mar 01:06:39 01:10:53 73° 284° (WNW) 01:15:04 437.675
FO-29 26 Mar 01:07:55 01:12:19 22° 299° (WNW) 01:16:25 435.910
QB50P2 26 Mar 01:11:16 01:15:27 59° 286° (WNW) 01:19:36 145.880/145.840
DX 1 26 Mar 01:17:23 01:21:43 82° 257° (WSW) 01:26:06 434.975-435.025
DUCHIFAT 1 26 Mar 01:24:38 01:28:45 54° 286° (WNW) 01:32:49 145.980
VELOX 1 26 Mar 01:39:26 01:42:36 19° 266° (W) 01:45:49 145.980
BUGSAT 1 26 Mar 01:43:35 01:47:47 78° 101° (E) 01:51:54 437.445
BEESAT 26 Mar 01:50:37 01:52:32 12° 62° (ENE) 01:54:27 436.000
SO-50 26 Mar 01:54:56 01:57:21 14° 251° (WSW) 01:59:44 436.795
UKube-1 26 Mar 01:59:21 02:03:21 38° 261° (W) 02:07:23 .
ITUPSAT 1 26 Mar 02:05:02 02:08:08 17° 64° (ENE) 02:11:13 437.325
NANOSAT C BR1 26 Mar 02:11:37 02:14:09 16° 294° (WNW) 02:16:41 145.865
EO-79 26 Mar 02:16:13 02:18:13 13° 295° (WNW) 02:20:13 145.935-145.965
Oscar 19 26 Mar 02:22:33 02:27:37 55° 100° (E) 02:32:41 437.125/150
Gurwin Techsat 1B 26 Mar 02:31:37 02:36:32 37° 98° (E) 02:41:25 435.225
ISS 26 Mar 02:33:39 02:35:38 15° 21° (NNE) 02:37:36 437.550
Tancredo 1 26 Mar 02:37:09 02:39:14 16° 23° (NNE) 02:41:17 437.200
O/OREOS (USA 219) 26 Mar 02:54:26 02:58:37 33° 63° (ENE) 03:02:45 437.305
BEESAT 26 Mar 03:24:54 03:29:41 71° 258° (WSW) 03:34:28 436.000
KKS-1 26 Mar 03:36:11 03:38:08 13° 63° (ENE) 03:40:06 437.445
ITUPSAT 1 26 Mar 03:40:54 03:45:32 49° 260° (W) 03:50:12 437.325
MOZHAYETS 4 26 Mar 03:47:29 03:52:05 79° 75° (ENE) 03:56:41
AO-7 26 Mar 03:57:17 04:04:42 35° 98° (E) 04:12:05 .
Oscar 19 26 Mar 04:03:06 04:06:29 18° 296° (WNW) 04:09:51 437.125/150
ITAMSAT 1 26 Mar 04:08:08 04:13:11 49° 100° (E) 04:18:11 435.822/435.867
ISS 26 Mar 04:09:16 04:12:34 76° 39° (NE) 04:15:51 437.550
Gurwin Techsat 1B 26 Mar 04:11:55 04:16:16 26° 294° (WNW) 04:20:36 435.225
Tancredo 1 26 Mar 04:12:31 04:15:44 86° 212° (SSW) 04:18:57 437.200
STARS 26 Mar 04:13:39 04:15:58 14° 64° (ENE) 04:18:17 437.465
O/OREOS (USA 219) 26 Mar 04:34:14 04:37:48 22° 259° (WSW) 04:41:21 437.305
CUBESAT XI-V 26 Mar 04:38:21 04:42:40 42° 72° (ENE) 04:47:00 437.345
